Year,Month,Day,Hour,Minute,Value (Times are PST for temperature in C)
2011,05,19,00,00,8.20
2011,05,19,00,01,8.20
2011,05,19,00,02,8.20
2011,05,19,00,03,8.20
2011,05,19,00,04,8.20
2011,05,19,00,05,8.10
2011,05,19,00,06,8.10
2011,05,19,00,07,8.10
2011,05,19,00,08,8.00
2011,05,19,00,09,8.00
2011,05,19,00,10,7.90
2011,05,19,00,11,7.90
2011,05,19,00,12,7.80
2011,05,19,00,13,7.80
2011,05,19,00,14,7.80
2011,05,19,00,15,7.80
2011,05,19,00,16,7.80
2011,05,19,00,17,7.70
2011,05,19,00,18,7.70
2011,05,19,00,19,7.70
2011,05,19,00,20,7.70
2011,05,19,00,21,7.70
2011,05,19,00,22,7.60
2011,05,19,00,23,7.60
2011,05,19,00,24,7.60
2011,05,19,00,25,7.60
2011,05,19,00,26,7.50
2011,05,19,00,27,7.50
2011,05,19,00,28,7.50
2011,05,19,00,29,7.50
2011,05,19,00,30,7.50
2011,05,19,00,31,7.50
2011,05,19,00,32,7.50
2011,05,19,00,33,7.50
2011,05,19,00,34,7.50
2011,05,19,00,35,7.50
2011,05,19,00,36,7.50
2011,05,19,00,37,7.50
2011,05,19,00,38,7.50
2011,05,19,00,39,7.50
2011,05,19,00,40,7.40
2011,05,19,00,41,7.40
2011,05,19,00,42,7.40
2011,05,19,00,43,7.40
2011,05,19,00,44,7.40
2011,05,19,00,45,7.40
2011,05,19,00,46,7.30
2011,05,19,00,47,7.30
2011,05,19,00,48,7.30
2011,05,19,00,49,7.30
2011,05,19,00,50,7.30
2011,05,19,00,51,7.30
2011,05,19,00,52,7.30
2011,05,19,00,53,7.20
2011,05,19,00,54,7.10
2011,05,19,00,55,7.10
2011,05,19,00,56,7.00
2011,05,19,00,57,7.00
2011,05,19,00,58,7.00
2011,05,19,00,59,6.90
2011,05,19,01,00,6.90
2011,05,19,01,01,6.90
2011,05,19,01,02,6.90
2011,05,19,01,03,6.90
2011,05,19,01,04,6.90
2011,05,19,01,05,6.80
2011,05,19,01,06,6.80
2011,05,19,01,07,6.80
2011,05,19,01,08,6.90
2011,05,19,01,09,6.90
2011,05,19,01,10,6.90
2011,05,19,01,11,6.90
2011,05,19,01,12,6.90
2011,05,19,01,13,6.90
2011,05,19,01,14,6.80
2011,05,19,01,15,6.80
2011,05,19,01,16,6.80
2011,05,19,01,17,6.80
2011,05,19,01,18,6.80
2011,05,19,01,19,6.70
2011,05,19,01,20,6.70
2011,05,19,01,21,6.70
2011,05,19,01,22,6.70
2011,05,19,01,23,6.70
2011,05,19,01,24,6.70
2011,05,19,01,25,6.70
2011,05,19,01,26,6.70
2011,05,19,01,27,6.70
2011,05,19,01,28,6.70
2011,05,19,01,29,6.60
2011,05,19,01,30,6.60
2011,05,19,01,31,6.60
2011,05,19,01,32,6.50
2011,05,19,01,33,6.40
2011,05,19,01,34,6.40
2011,05,19,01,35,6.40
2011,05,19,01,36,6.30
2011,05,19,01,37,6.30
2011,05,19,01,38,6.30
2011,05,19,01,39,6.30
2011,05,19,01,40,6.20
2011,05,19,01,41,6.20
2011,05,19,01,42,6.20
2011,05,19,01,43,6.20
2011,05,19,01,44,6.20
2011,05,19,01,45,6.20
2011,05,19,01,46,6.20
2011,05,19,01,47,6.20
2011,05,19,01,48,6.20
2011,05,19,01,49,6.20
2011,05,19,01,50,6.20
2011,05,19,01,51,6.20
2011,05,19,01,52,6.20
2011,05,19,01,53,6.20
2011,05,19,01,54,6.20
2011,05,19,01,55,6.20
2011,05,19,01,56,6.20
2011,05,19,01,57,6.20
2011,05,19,01,58,6.10
2011,05,19,01,59,6.10
2011,05,19,02,00,6.10
2011,05,19,02,01,6.10
2011,05,19,02,02,6.00
2011,05,19,02,03,6.00
2011,05,19,02,04,6.00
2011,05,19,02,05,6.00
2011,05,19,02,06,6.00
2011,05,19,02,07,5.90
2011,05,19,02,08,5.90
2011,05,19,02,09,5.90
2011,05,19,02,10,5.90
2011,05,19,02,11,5.90
2011,05,19,02,12,5.90
2011,05,19,02,13,5.90
2011,05,19,02,14,5.90
2011,05,19,02,15,5.90
2011,05,19,02,16,5.80
2011,05,19,02,17,5.80
2011,05,19,02,18,5.80
2011,05,19,02,19,5.70
2011,05,19,02,20,5.70
2011,05,19,02,21,5.70
2011,05,19,02,22,5.70
2011,05,19,02,23,5.70
2011,05,19,02,24,5.70
2011,05,19,02,25,5.70
2011,05,19,02,26,5.70
2011,05,19,02,27,5.70
2011,05,19,02,28,5.70
2011,05,19,02,29,5.70
2011,05,19,02,30,5.80
2011,05,19,02,31,5.80
2011,05,19,02,32,5.80
2011,05,19,02,33,5.70
2011,05,19,02,34,5.70
2011,05,19,02,35,5.70
2011,05,19,02,36,5.70
2011,05,19,02,37,5.70
2011,05,19,02,38,5.70
2011,05,19,02,39,5.70
2011,05,19,02,40,5.70
2011,05,19,02,41,5.70
2011,05,19,02,42,5.70
2011,05,19,02,43,5.70
2011,05,19,02,44,5.70
2011,05,19,02,45,5.70
2011,05,19,02,46,5.70
2011,05,19,02,47,5.70
2011,05,19,02,48,5.70
2011,05,19,02,49,5.70
2011,05,19,02,50,5.70
2011,05,19,02,51,5.70
2011,05,19,02,52,5.60
2011,05,19,02,53,5.60
2011,05,19,02,54,5.60
2011,05,19,02,55,5.60
2011,05,19,02,56,5.50
2011,05,19,02,57,5.50
2011,05,19,02,58,5.50
2011,05,19,02,59,5.40
2011,05,19,03,00,5.40
2011,05,19,03,01,5.40
2011,05,19,03,02,5.40
2011,05,19,03,03,5.40
2011,05,19,03,04,5.30
2011,05,19,03,05,5.30
2011,05,19,03,06,5.30
2011,05,19,03,07,5.30
2011,05,19,03,08,5.30
2011,05,19,03,09,5.30
2011,05,19,03,10,5.30
2011,05,19,03,11,5.30
2011,05,19,03,12,5.30
2011,05,19,03,13,5.20
2011,05,19,03,14,5.20
2011,05,19,03,15,5.20
2011,05,19,03,16,5.20
2011,05,19,03,17,5.20
2011,05,19,03,18,5.20
2011,05,19,03,19,5.10
2011,05,19,03,20,5.10
2011,05,19,03,21,5.10
2011,05,19,03,22,5.10
2011,05,19,03,23,5.10
2011,05,19,03,24,5.10
2011,05,19,03,25,5.10
2011,05,19,03,26,5.10
2011,05,19,03,27,5.10
2011,05,19,03,28,5.10
2011,05,19,03,29,5.10
2011,05,19,03,30,5.10
2011,05,19,03,31,5.10
2011,05,19,03,32,5.10
2011,05,19,03,33,5.10
2011,05,19,03,34,5.10
2011,05,19,03,35,5.10
2011,05,19,03,36,5.10
2011,05,19,03,37,5.10
2011,05,19,03,38,5.10
2011,05,19,03,39,5.10
2011,05,19,03,40,5.10
2011,05,19,03,41,5.10
2011,05,19,03,42,5.10
2011,05,19,03,43,5.10
2011,05,19,03,44,5.10
2011,05,19,03,45,5.10
2011,05,19,03,46,5.10
2011,05,19,03,47,5.00
2011,05,19,03,48,4.90
2011,05,19,03,49,4.90
2011,05,19,03,50,4.90
2011,05,19,03,51,4.90
2011,05,19,03,52,4.90
2011,05,19,03,53,4.90
2011,05,19,03,54,4.90
2011,05,19,03,55,4.90
2011,05,19,03,56,4.80
2011,05,19,03,57,4.80
2011,05,19,03,58,4.80
2011,05,19,03,59,4.80
2011,05,19,04,00,4.80
2011,05,19,04,01,4.70
2011,05,19,04,02,4.70
2011,05,19,04,03,4.70
2011,05,19,04,04,4.70
2011,05,19,04,05,4.70
2011,05,19,04,06,4.70
2011,05,19,04,07,4.70
2011,05,19,04,08,4.70
2011,05,19,04,09,4.70
2011,05,19,04,10,4.70
2011,05,19,04,11,4.70
2011,05,19,04,12,4.70
2011,05,19,04,13,4.70
2011,05,19,04,14,4.70
2011,05,19,04,15,4.70
2011,05,19,04,16,4.70
2011,05,19,04,17,4.80
2011,05,19,04,18,4.70
2011,05,19,04,19,4.70
2011,05,19,04,20,4.70
2011,05,19,04,21,4.70
2011,05,19,04,22,4.70
2011,05,19,04,23,4.70
2011,05,19,04,24,4.60
2011,05,19,04,25,4.60
2011,05,19,04,26,4.60
2011,05,19,04,27,4.60
2011,05,19,04,28,4.60
2011,05,19,04,29,4.60
2011,05,19,04,30,4.60
2011,05,19,04,31,4.60
2011,05,19,04,32,4.60
2011,05,19,04,33,4.60
2011,05,19,04,34,4.60
2011,05,19,04,35,4.60
2011,05,19,04,36,4.60
2011,05,19,04,37,4.60
2011,05,19,04,38,4.60
2011,05,19,04,39,4.60
2011,05,19,04,40,4.60
2011,05,19,04,41,4.60
2011,05,19,04,42,4.50
2011,05,19,04,43,4.50
2011,05,19,04,44,4.40
2011,05,19,04,45,4.40
2011,05,19,04,46,4.40
2011,05,19,04,47,4.40
2011,05,19,04,48,4.40
2011,05,19,04,49,4.40
2011,05,19,04,50,4.40
2011,05,19,04,51,4.40
2011,05,19,04,52,4.40
2011,05,19,04,53,4.40
2011,05,19,04,54,4.40
2011,05,19,04,55,4.40
2011,05,19,04,56,4.40
2011,05,19,04,57,4.40
2011,05,19,04,58,4.40
2011,05,19,04,59,4.40
2011,05,19,05,00,4.40
2011,05,19,05,01,4.40
2011,05,19,05,02,4.40
2011,05,19,05,03,4.40
2011,05,19,05,04,4.40
2011,05,19,05,05,4.40
2011,05,19,05,06,4.40
2011,05,19,05,07,4.40
2011,05,19,05,08,4.30
2011,05,19,05,09,4.30
2011,05,19,05,10,4.30
2011,05,19,05,11,4.20
2011,05,19,05,12,4.20
2011,05,19,05,13,4.20
2011,05,19,05,14,4.20
2011,05,19,05,15,4.20
2011,05,19,05,16,4.20
2011,05,19,05,17,4.20
2011,05,19,05,18,4.20
2011,05,19,05,19,4.30
2011,05,19,05,20,4.30
2011,05,19,05,21,4.30
2011,05,19,05,22,4.30
2011,05,19,05,23,4.30
2011,05,19,05,24,4.30
2011,05,19,05,25,4.30
2011,05,19,05,26,4.30
2011,05,19,05,27,4.30
2011,05,19,05,28,4.30
2011,05,19,05,29,4.20
2011,05,19,05,30,4.20
2011,05,19,05,31,4.20
2011,05,19,05,32,4.20
2011,05,19,05,33,4.20
2011,05,19,05,34,4.20
2011,05,19,05,35,4.20
2011,05,19,05,36,4.20
2011,05,19,05,37,4.20
2011,05,19,05,38,4.20
2011,05,19,05,39,4.10
2011,05,19,05,40,4.10
2011,05,19,05,41,4.10
2011,05,19,05,42,4.10
2011,05,19,05,43,4.00
2011,05,19,05,44,4.00
2011,05,19,05,45,4.00
2011,05,19,05,46,4.00
2011,05,19,05,47,4.00
2011,05,19,05,48,3.90
2011,05,19,05,49,3.90
2011,05,19,05,50,3.90
2011,05,19,05,51,3.90
2011,05,19,05,52,3.90
2011,05,19,05,53,3.90
2011,05,19,05,54,3.90
2011,05,19,05,55,3.90
2011,05,19,05,56,3.90
2011,05,19,05,57,3.90
2011,05,19,05,58,3.90
2011,05,19,05,59,3.90
2011,05,19,06,00,3.90
2011,05,19,06,01,3.90
2011,05,19,06,02,3.90
2011,05,19,06,03,3.90
2011,05,19,06,04,3.90
2011,05,19,06,05,3.90
2011,05,19,06,06,3.90
2011,05,19,06,07,4.00
2011,05,19,06,08,4.00
2011,05,19,06,09,4.00
2011,05,19,06,10,4.00
2011,05,19,06,11,4.00
2011,05,19,06,12,4.10
2011,05,19,06,13,4.10
2011,05,19,06,14,4.10
2011,05,19,06,15,4.10
2011,05,19,06,16,4.20
2011,05,19,06,17,4.20
2011,05,19,06,18,4.20
2011,05,19,06,19,4.20
2011,05,19,06,20,4.20
2011,05,19,06,21,4.20
2011,05,19,06,22,4.20
2011,05,19,06,23,4.20
2011,05,19,06,24,4.30
2011,05,19,06,25,4.30
2011,05,19,06,26,4.40
2011,05,19,06,27,4.40
2011,05,19,06,28,4.40
2011,05,19,06,29,4.50
2011,05,19,06,30,4.50
2011,05,19,06,31,4.50
2011,05,19,06,32,4.50
2011,05,19,06,33,4.60
2011,05,19,06,34,4.60
2011,05,19,06,35,4.70
2011,05,19,06,36,4.80
2011,05,19,06,37,4.90
2011,05,19,06,38,4.90
2011,05,19,06,39,5.00
2011,05,19,06,40,5.10
2011,05,19,06,41,5.10
2011,05,19,06,42,5.10
2011,05,19,06,43,5.20
2011,05,19,06,44,5.20
2011,05,19,06,45,5.30
2011,05,19,06,46,5.30
2011,05,19,06,47,5.40
2011,05,19,06,48,5.40
2011,05,19,06,49,5.50
2011,05,19,06,50,5.60
2011,05,19,06,51,5.60
2011,05,19,06,52,5.70
2011,05,19,06,53,5.70
2011,05,19,06,54,5.80
2011,05,19,06,55,5.90
2011,05,19,06,56,6.00
2011,05,19,06,57,6.10
2011,05,19,06,58,6.10
2011,05,19,06,59,6.20
2011,05,19,07,00,6.20
2011,05,19,07,01,6.30
2011,05,19,07,02,6.40
2011,05,19,07,03,6.40
2011,05,19,07,04,6.50
2011,05,19,07,05,6.60
2011,05,19,07,06,6.70
2011,05,19,07,07,6.80
2011,05,19,07,08,6.90
2011,05,19,07,09,7.00
2011,05,19,07,10,7.00
2011,05,19,07,11,7.10
2011,05,19,07,12,7.20
2011,05,19,07,13,7.30
2011,05,19,07,14,7.40
2011,05,19,07,15,7.50
2011,05,19,07,16,7.60
2011,05,19,07,17,7.60
2011,05,19,07,18,7.70
2011,05,19,07,19,7.80
2011,05,19,07,20,7.90
2011,05,19,07,21,8.00
2011,05,19,07,22,8.10
2011,05,19,07,23,8.20
2011,05,19,07,24,8.20
2011,05,19,07,25,8.30
2011,05,19,07,26,8.30
2011,05,19,07,27,8.50
2011,05,19,07,28,8.60
2011,05,19,07,29,8.70
2011,05,19,07,30,8.80
2011,05,19,07,31,8.90
2011,05,19,07,32,8.90
2011,05,19,07,33,9.00
2011,05,19,07,34,9.10
2011,05,19,07,35,9.20
2011,05,19,07,36,9.20
2011,05,19,07,37,9.20
2011,05,19,07,38,9.20
2011,05,19,07,39,9.30
2011,05,19,07,40,9.30
2011,05,19,07,41,9.40
2011,05,19,07,42,9.40
2011,05,19,07,43,9.50
2011,05,19,07,44,9.60
2011,05,19,07,45,9.70
2011,05,19,07,46,9.70
2011,05,19,07,47,9.80
2011,05,19,07,48,9.90
2011,05,19,07,49,9.90
2011,05,19,07,50,10.00
2011,05,19,07,51,10.10
2011,05,19,07,52,10.10
2011,05,19,07,53,10.20
2011,05,19,07,54,10.30
2011,05,19,07,55,10.30
2011,05,19,07,56,10.40
2011,05,19,07,57,10.50
2011,05,19,07,58,10.60
2011,05,19,07,59,10.70
2011,05,19,08,00,10.80
2011,05,19,08,01,10.90
2011,05,19,08,02,10.90
2011,05,19,08,03,10.90
2011,05,19,08,04,11.00
2011,05,19,08,05,11.10
2011,05,19,08,06,11.20
2011,05,19,08,07,11.20
2011,05,19,08,08,11.20
2011,05,19,08,09,11.30
2011,05,19,08,10,11.40
2011,05,19,08,11,11.40
2011,05,19,08,12,11.50
2011,05,19,08,13,11.60
2011,05,19,08,14,11.60
2011,05,19,08,15,11.60
2011,05,19,08,16,11.70
2011,05,19,08,17,11.80
2011,05,19,08,18,11.80
2011,05,19,08,19,11.90
2011,05,19,08,20,12.00
2011,05,19,08,21,12.00
2011,05,19,08,22,12.00
2011,05,19,08,23,12.00
2011,05,19,08,24,12.00
2011,05,19,08,25,11.90
2011,05,19,08,26,12.00
2011,05,19,08,27,12.00
2011,05,19,08,28,12.00
2011,05,19,08,29,12.10
2011,05,19,08,30,12.20
2011,05,19,08,31,12.30
2011,05,19,08,32,12.30
2011,05,19,08,33,12.40
2011,05,19,08,34,12.40
2011,05,19,08,35,12.40
2011,05,19,08,36,12.30
2011,05,19,08,37,12.30
2011,05,19,08,38,12.30
2011,05,19,08,39,12.30
2011,05,19,08,40,12.30
2011,05,19,08,41,12.40
2011,05,19,08,42,12.50
2011,05,19,08,43,12.60
2011,05,19,08,44,12.70
2011,05,19,08,45,12.60
2011,05,19,08,46,12.60
2011,05,19,08,47,12.70
2011,05,19,08,48,12.70
2011,05,19,08,49,12.80
2011,05,19,08,50,12.90
2011,05,19,08,51,12.90
2011,05,19,08,52,13.00
2011,05,19,08,53,13.10
2011,05,19,08,54,13.20
2011,05,19,08,55,13.20
2011,05,19,08,56,13.20
2011,05,19,08,57,13.20
2011,05,19,08,58,13.20
2011,05,19,08,59,13.20
2011,05,19,09,00,13.20
2011,05,19,09,01,13.20
2011,05,19,09,02,13.20
2011,05,19,09,03,13.20
2011,05,19,09,04,13.20
2011,05,19,09,05,13.20
2011,05,19,09,06,13.10
2011,05,19,09,07,13.10
2011,05,19,09,08,13.10
2011,05,19,09,09,13.20
2011,05,19,09,10,13.20
2011,05,19,09,11,13.20
2011,05,19,09,12,13.20
2011,05,19,09,13,13.20
2011,05,19,09,14,13.30
2011,05,19,09,15,13.40
2011,05,19,09,16,13.40
2011,05,19,09,17,13.50
2011,05,19,09,18,13.60
2011,05,19,09,19,13.60
2011,05,19,09,20,13.70
2011,05,19,09,21,13.70
2011,05,19,09,22,13.70
2011,05,19,09,23,13.70
2011,05,19,09,24,13.70
2011,05,19,09,25,13.70
2011,05,19,09,26,13.80
2011,05,19,09,27,13.80
2011,05,19,09,28,13.90
2011,05,19,09,29,13.90
2011,05,19,09,30,13.90
2011,05,19,09,31,13.80
2011,05,19,09,32,13.80
2011,05,19,09,33,13.90
2011,05,19,09,34,14.00
2011,05,19,09,35,14.00
2011,05,19,09,36,14.00
2011,05,19,09,37,14.00
2011,05,19,09,38,13.90
2011,05,19,09,39,13.90
2011,05,19,09,40,13.90
2011,05,19,09,41,13.90
2011,05,19,09,42,13.90
2011,05,19,09,43,13.90
2011,05,19,09,44,14.00
2011,05,19,09,45,14.00
2011,05,19,09,46,14.10
2011,05,19,09,47,14.10
2011,05,19,09,48,14.10
2011,05,19,09,49,14.10
2011,05,19,09,50,14.30
2011,05,19,09,51,14.40
2011,05,19,09,52,14.50
2011,05,19,09,53,14.60
2011,05,19,09,54,14.70
2011,05,19,09,55,14.80
2011,05,19,09,56,14.90
2011,05,19,09,57,14.90
2011,05,19,09,58,14.90
2011,05,19,09,59,14.80
2011,05,19,10,00,14.80
2011,05,19,10,01,14.70
2011,05,19,10,02,14.70
2011,05,19,10,03,14.70
2011,05,19,10,04,14.70
2011,05,19,10,05,14.80
2011,05,19,10,06,14.90
2011,05,19,10,07,15.00
2011,05,19,10,08,15.20
2011,05,19,10,09,15.30
2011,05,19,10,10,15.30
2011,05,19,10,11,15.40
2011,05,19,10,12,15.40
2011,05,19,10,13,15.50
2011,05,19,10,14,15.60
2011,05,19,10,15,15.60
2011,05,19,10,16,15.70
2011,05,19,10,17,15.80
2011,05,19,10,18,15.80
2011,05,19,10,19,15.80
2011,05,19,10,20,15.80
2011,05,19,10,21,15.80
2011,05,19,10,22,15.70
2011,05,19,10,23,15.70
2011,05,19,10,24,15.70
2011,05,19,10,25,15.80
2011,05,19,10,26,15.80
2011,05,19,10,27,15.80
2011,05,19,10,28,15.80
2011,05,19,10,29,15.80
2011,05,19,10,30,15.60
2011,05,19,10,31,15.50
2011,05,19,10,32,15.30
2011,05,19,10,33,15.20
2011,05,19,10,34,15.10
2011,05,19,10,35,15.10
2011,05,19,10,36,15.20
2011,05,19,10,37,15.30
2011,05,19,10,38,15.30
2011,05,19,10,39,15.30
2011,05,19,10,40,15.30
2011,05,19,10,41,15.30
2011,05,19,10,42,15.20
2011,05,19,10,43,15.10
2011,05,19,10,44,15.10
2011,05,19,10,45,15.10
2011,05,19,10,46,15.10
2011,05,19,10,47,15.00
2011,05,19,10,48,15.00
2011,05,19,10,49,15.10
2011,05,19,10,50,15.20
2011,05,19,10,51,15.20
2011,05,19,10,52,15.30
2011,05,19,10,53,15.50
2011,05,19,10,54,15.50
2011,05,19,10,55,15.50
2011,05,19,10,56,15.60
2011,05,19,10,57,15.60
2011,05,19,10,58,15.50
2011,05,19,10,59,15.60
2011,05,19,11,00,15.60
2011,05,19,11,01,15.60
2011,05,19,11,02,15.70
2011,05,19,11,03,15.70
2011,05,19,11,04,15.80
2011,05,19,11,05,15.70
2011,05,19,11,06,15.60
2011,05,19,11,07,15.60
2011,05,19,11,08,15.70
2011,05,19,11,09,15.80
2011,05,19,11,10,15.80
2011,05,19,11,11,15.80
2011,05,19,11,12,15.80
2011,05,19,11,13,15.80
2011,05,19,11,14,15.80
2011,05,19,11,15,15.80
2011,05,19,11,16,15.80
2011,05,19,11,17,15.80
2011,05,19,11,18,15.80
2011,05,19,11,19,15.80
2011,05,19,11,20,16.00
2011,05,19,11,21,16.10
2011,05,19,11,22,16.20
2011,05,19,11,23,16.20
2011,05,19,11,24,16.30
2011,05,19,11,25,16.30
2011,05,19,11,26,16.20
2011,05,19,11,27,16.10
2011,05,19,11,28,16.10
2011,05,19,11,29,16.20
2011,05,19,11,30,16.20
2011,05,19,11,31,16.40
2011,05,19,11,32,16.40
2011,05,19,11,33,16.50
2011,05,19,11,34,16.60
2011,05,19,11,35,16.60
2011,05,19,11,36,16.70
2011,05,19,11,37,16.80
2011,05,19,11,38,16.80
2011,05,19,11,39,16.70
2011,05,19,11,40,16.60
2011,05,19,11,41,16.70
2011,05,19,11,42,16.60
2011,05,19,11,43,16.60
2011,05,19,11,44,16.60
2011,05,19,11,45,16.70
2011,05,19,11,46,16.90
2011,05,19,11,47,17.10
2011,05,19,11,48,17.20
2011,05,19,11,49,17.00
2011,05,19,11,50,16.80
2011,05,19,11,51,16.60
2011,05,19,11,52,16.40
2011,05,19,11,53,16.40
2011,05,19,11,54,16.30
2011,05,19,11,55,16.30
2011,05,19,11,56,16.10
2011,05,19,11,57,16.10
2011,05,19,11,58,16.00
2011,05,19,11,59,15.90
2011,05,19,12,00,15.80
2011,05,19,12,01,15.70
2011,05,19,12,02,15.60
2011,05,19,12,03,15.60
2011,05,19,12,04,15.60
2011,05,19,12,05,15.60
2011,05,19,12,06,15.60
2011,05,19,12,07,15.60
2011,05,19,12,08,15.60
2011,05,19,12,09,15.60
2011,05,19,12,10,15.70
2011,05,19,12,11,15.70
2011,05,19,12,12,15.70
2011,05,19,12,13,15.60
2011,05,19,12,14,15.60
2011,05,19,12,15,15.60
2011,05,19,12,16,15.60
2011,05,19,12,17,15.50
2011,05,19,12,18,15.50
2011,05,19,12,19,15.50
2011,05,19,12,20,15.50
2011,05,19,12,21,15.50
2011,05,19,12,22,15.50
2011,05,19,12,23,15.50
2011,05,19,12,24,15.50
2011,05,19,12,25,15.40
2011,05,19,12,26,15.30
2011,05,19,12,27,15.40
2011,05,19,12,28,15.50
2011,05,19,12,29,15.50
2011,05,19,12,30,15.60
2011,05,19,12,31,15.60
2011,05,19,12,32,15.50
2011,05,19,12,33,15.40
2011,05,19,12,34,15.40
2011,05,19,12,35,15.40
2011,05,19,12,36,15.30
2011,05,19,12,37,15.30
2011,05,19,12,38,15.30
2011,05,19,12,39,15.30
2011,05,19,12,40,15.40
2011,05,19,12,41,15.40
2011,05,19,12,42,15.40
2011,05,19,12,43,15.40
2011,05,19,12,44,15.30
2011,05,19,12,45,15.30
2011,05,19,12,46,15.30
2011,05,19,12,47,15.30
2011,05,19,12,48,15.30
2011,05,19,12,49,15.30
2011,05,19,12,50,15.30
2011,05,19,12,51,15.30
2011,05,19,12,52,15.30
2011,05,19,12,53,15.50
2011,05,19,12,54,15.60
2011,05,19,12,55,15.60
2011,05,19,12,56,15.70
2011,05,19,12,57,15.80
2011,05,19,12,58,15.80
2011,05,19,12,59,15.90
2011,05,19,13,00,15.90
2011,05,19,13,01,16.00
2011,05,19,13,02,16.10
2011,05,19,13,03,16.10
2011,05,19,13,04,16.10
2011,05,19,13,05,16.10
2011,05,19,13,06,16.10
2011,05,19,13,07,16.10
2011,05,19,13,08,16.10
2011,05,19,13,09,16.20
2011,05,19,13,10,16.10
2011,05,19,13,11,16.10
2011,05,19,13,12,16.20
2011,05,19,13,13,16.40
2011,05,19,13,14,16.40
2011,05,19,13,15,16.60
2011,05,19,13,16,16.50
2011,05,19,13,17,16.40
2011,05,19,13,18,16.20
2011,05,19,13,19,16.20
2011,05,19,13,20,16.20
2011,05,19,13,21,16.20
2011,05,19,13,22,16.30
2011,05,19,13,23,16.30
2011,05,19,13,24,16.40
2011,05,19,13,25,16.40
2011,05,19,13,26,16.60
2011,05,19,13,27,16.50
2011,05,19,13,28,16.40
2011,05,19,13,29,16.50
2011,05,19,13,30,16.40
2011,05,19,13,31,16.40
2011,05,19,13,32,16.50
2011,05,19,13,33,16.60
2011,05,19,13,34,16.60
2011,05,19,13,35,16.60
2011,05,19,13,36,16.70
2011,05,19,13,37,16.50
2011,05,19,13,38,16.40
2011,05,19,13,39,16.40
2011,05,19,13,40,16.40
2011,05,19,13,41,16.60
2011,05,19,13,42,16.60
2011,05,19,13,43,16.70
2011,05,19,13,44,16.70
2011,05,19,13,45,16.70
2011,05,19,13,46,16.70
2011,05,19,13,47,16.70
2011,05,19,13,48,16.80
2011,05,19,13,49,16.80
2011,05,19,13,50,16.90
2011,05,19,13,51,16.90
2011,05,19,13,52,16.90
2011,05,19,13,53,16.80
2011,05,19,13,54,16.80
2011,05,19,13,55,16.80
2011,05,19,13,56,16.90
2011,05,19,13,57,16.90
2011,05,19,13,58,16.90
2011,05,19,13,59,16.90
2011,05,19,14,00,16.90
2011,05,19,14,01,16.90
2011,05,19,14,02,17.00
2011,05,19,14,03,16.90
2011,05,19,14,04,17.00
2011,05,19,14,05,17.10
2011,05,19,14,06,17.10
2011,05,19,14,07,17.00
2011,05,19,14,08,16.90
2011,05,19,14,09,16.90
2011,05,19,14,10,16.90
2011,05,19,14,11,17.00
2011,05,19,14,12,17.00
2011,05,19,14,13,17.10
2011,05,19,14,14,17.10
2011,05,19,14,15,17.10
2011,05,19,14,16,17.10
2011,05,19,14,17,17.00
2011,05,19,14,18,16.90
2011,05,19,14,19,16.80
2011,05,19,14,20,16.70
2011,05,19,14,21,16.70
2011,05,19,14,22,16.60
2011,05,19,14,23,16.70
2011,05,19,14,24,16.70
2011,05,19,14,25,16.60
2011,05,19,14,26,16.60
2011,05,19,14,27,16.70
2011,05,19,14,28,16.80
2011,05,19,14,29,16.90
2011,05,19,14,30,17.00
2011,05,19,14,31,17.10
2011,05,19,14,32,17.20
2011,05,19,14,33,17.20
2011,05,19,14,34,17.20
2011,05,19,14,35,17.10
2011,05,19,14,36,17.00
2011,05,19,14,37,16.80
2011,05,19,14,38,16.70
2011,05,19,14,39,16.70
2011,05,19,14,40,16.70
2011,05,19,14,41,16.60
2011,05,19,14,42,16.60
2011,05,19,14,43,16.60
2011,05,19,14,44,16.60
2011,05,19,14,45,16.60
2011,05,19,14,46,16.60
2011,05,19,14,47,16.70
2011,05,19,14,48,16.70
2011,05,19,14,49,16.70
2011,05,19,14,50,16.80
2011,05,19,14,51,16.70
2011,05,19,14,52,16.70
2011,05,19,14,53,16.70
2011,05,19,14,54,16.70
2011,05,19,14,55,16.60
2011,05,19,14,56,16.60
2011,05,19,14,57,16.60
2011,05,19,14,58,16.60
2011,05,19,14,59,16.70
2011,05,19,15,00,16.70
2011,05,19,15,01,16.70
2011,05,19,15,02,16.70
2011,05,19,15,03,16.60
2011,05,19,15,04,16.50
2011,05,19,15,05,16.40
2011,05,19,15,06,16.40
2011,05,19,15,07,16.40
2011,05,19,15,08,16.20
2011,05,19,15,09,16.10
2011,05,19,15,10,16.10
2011,05,19,15,11,16.10
2011,05,19,15,12,16.10
2011,05,19,15,13,16.10
2011,05,19,15,14,16.10
2011,05,19,15,15,16.10
2011,05,19,15,16,16.10
2011,05,19,15,17,16.10
2011,05,19,15,18,16.20
2011,05,19,15,19,16.10
2011,05,19,15,20,16.10
2011,05,19,15,21,16.10
2011,05,19,15,22,16.20
2011,05,19,15,23,16.30
2011,05,19,15,24,16.20
2011,05,19,15,25,16.10
2011,05,19,15,26,16.10
2011,05,19,15,27,16.10
2011,05,19,15,28,16.10
2011,05,19,15,29,16.20
2011,05,19,15,30,16.20
2011,05,19,15,31,16.30
2011,05,19,15,32,16.20
2011,05,19,15,33,16.20
2011,05,19,15,34,16.10
2011,05,19,15,35,16.10
2011,05,19,15,36,16.00
2011,05,19,15,37,15.90
2011,05,19,15,38,15.80
2011,05,19,15,39,15.80
2011,05,19,15,40,15.90
2011,05,19,15,41,16.00
2011,05,19,15,42,16.10
2011,05,19,15,43,16.20
2011,05,19,15,44,16.30
2011,05,19,15,45,16.30
2011,05,19,15,46,16.30
2011,05,19,15,47,16.30
2011,05,19,15,48,16.40
2011,05,19,15,49,16.30
2011,05,19,15,50,16.30
2011,05,19,15,51,16.30
2011,05,19,15,52,16.20
2011,05,19,15,53,16.20
2011,05,19,15,54,16.30
2011,05,19,15,55,16.30
2011,05,19,15,56,16.40
2011,05,19,15,57,16.40
2011,05,19,15,58,16.40
2011,05,19,15,59,16.60
2011,05,19,16,00,16.70
2011,05,19,16,01,16.80
2011,05,19,16,02,16.90
2011,05,19,16,03,16.80
2011,05,19,16,04,16.80
2011,05,19,16,05,16.80
2011,05,19,16,06,16.80
2011,05,19,16,07,16.80
2011,05,19,16,08,16.80
2011,05,19,16,09,16.70
2011,05,19,16,10,16.70
2011,05,19,16,11,16.80
2011,05,19,16,12,16.80
2011,05,19,16,13,16.80
2011,05,19,16,14,16.90
2011,05,19,16,15,17.00
2011,05,19,16,16,17.20
2011,05,19,16,17,17.30
2011,05,19,16,18,17.30
2011,05,19,16,19,17.40
2011,05,19,16,20,17.50
2011,05,19,16,21,17.50
2011,05,19,16,22,17.50
2011,05,19,16,23,17.50
2011,05,19,16,24,17.60
2011,05,19,16,25,17.60
2011,05,19,16,26,17.60
2011,05,19,16,27,17.60
2011,05,19,16,28,17.70
2011,05,19,16,29,17.70
2011,05,19,16,30,17.70
2011,05,19,16,31,17.70
2011,05,19,16,32,17.70
2011,05,19,16,33,17.60
2011,05,19,16,34,17.50
2011,05,19,16,35,17.60
2011,05,19,16,36,17.60
2011,05,19,16,37,17.60
2011,05,19,16,38,17.60
2011,05,19,16,39,17.60
2011,05,19,16,40,17.60
2011,05,19,16,41,17.60
2011,05,19,16,42,17.60
2011,05,19,16,43,17.60
2011,05,19,16,44,17.50
2011,05,19,16,45,17.40
2011,05,19,16,46,17.30
2011,05,19,16,47,17.30
2011,05,19,16,48,17.30
2011,05,19,16,49,17.40
2011,05,19,16,50,17.50
2011,05,19,16,51,17.50
2011,05,19,16,52,17.50
2011,05,19,16,53,17.50
2011,05,19,16,54,17.50
2011,05,19,16,55,17.50
2011,05,19,16,56,17.60
2011,05,19,16,57,17.60
2011,05,19,16,58,17.60
2011,05,19,16,59,17.60
2011,05,19,17,00,17.60
2011,05,19,17,01,17.50
2011,05,19,17,02,17.50
2011,05,19,17,03,17.40
2011,05,19,17,04,17.50
2011,05,19,17,05,17.50
2011,05,19,17,06,17.40
2011,05,19,17,07,17.30
2011,05,19,17,08,17.30
2011,05,19,17,09,17.30
2011,05,19,17,10,17.30
2011,05,19,17,11,17.30
2011,05,19,17,12,17.30
2011,05,19,17,13,17.40
2011,05,19,17,14,17.50
2011,05,19,17,15,17.50
2011,05,19,17,16,17.60
2011,05,19,17,17,17.50
2011,05,19,17,18,17.50
2011,05,19,17,19,17.60
2011,05,19,17,20,17.60
2011,05,19,17,21,17.70
2011,05,19,17,22,17.70
2011,05,19,17,23,17.70
2011,05,19,17,24,17.70
2011,05,19,17,25,17.70
2011,05,19,17,26,17.70
2011,05,19,17,27,17.70
2011,05,19,17,28,17.60
2011,05,19,17,29,17.70
2011,05,19,17,30,17.70
2011,05,19,17,31,17.70
2011,05,19,17,32,17.70
2011,05,19,17,33,17.80
2011,05,19,17,34,17.70
2011,05,19,17,35,17.70
2011,05,19,17,36,17.80
2011,05,19,17,37,17.80
2011,05,19,17,38,17.90
2011,05,19,17,39,18.00